Temp
1 2 2 2 2 2 2 2 2 2 2 2 2 2 1 1 1 1 1 1 1 1 1 1 1 1 1 1 1 1 1 1 1 1 0 0 0 0 0 0 0 0
1 1 2 1 2 2 2 2 2 2 2 2 2 2 1 1 1 1 1 1 1 1 1 1 1 0 0 0 0 0 0 0 0 0 0 0 0 0 0 0 -0 -0
1 1 2 1 1 2 2 2 2 2 2 2 2 2 1 1 1 1 1 1 1 1 0 0 0 0 0 0 0 -0 -0 -0 -0 -0 -0 -0 -0 -0 -0 -0 -0 -0
0 1 1 1 1 1 1 2 2 2 2 2 2 2 1 1 1 1 1 1 1 1 1 0 0 0 0 0 -0 -0 -0 -0 -0 -0 -0 -0 -0 -0 -0 -0 -1 -1
0 1 1 1 0 1 1 1 2 2 2 2 2 2 1 1 1 1 1 1 1 1 1 1 1 0 0 0 0 -0 -0 -0 -0 -0 -1 -1 -1 -1 -1 -1 -1 -1
0 0 1 1 0 0 1 1 1 1 1 1 1 1 1 1 1 1 1 1 1 1 1 1 1 1 0 0 0 0 -0 -0 -0 -0 -1 -1 -1 -1 -1 -1 -1 -1
0 0 1 1 0 0 0 1 1 1 1 1 1 1 1 1 1 1 1 1 1 1 1 1 1 1 1 1 0 0 0 -0 -0 -1 -1 -1 -1 -1 -1 -1 -1 -1
0 0 1 1 1 0 0 0 1 1 1 1 1 1 1 1 1 1 1 1 1 1 1 1 1 1 1 1 1 0 0 0 -0 -0 -1 -1 -1 -1 -1 -1 -1 -1
0 1 1 1 1 0 -0 -0 -0 0 0 1 1 1 1 1 1 1 1 1 1 1 0 0 0 0 0 0 0 0 0 0 0 0 -0 -0 -1 -1 -1 -1 -1 -1
0 0 0 0 1 0 -0 -1 -0 -0 -0 0 1 1 1 1 1 1 1 1 1 0 0 0 0 0 0 -0 -0 -0 0 0 0 0 0 -0 -0 -1 -1 -1 -1 -1
0 0 0 0 0 0 -0 -1 -0 -0 -1 -0 -0 0 0 0 0 0 0 0 0 0 0 0 0 0 0 0 0 0 -0 -0 0 0 0 -0 -0 -1 -1 -1 -1 -1
0 0 0 0 0 0 -0 -0 -1 -1 -1 -1 -0 -0 -0 -1 -1 -0 -0 -0 0 0 0 0 0 0 0 0 0 0 0 -0 -0 0 0 -0 -0 -0 -0 -0 -0 -1
0 0 0 1 1 0 0 -0 -1 -1 -1 -1 -1 -0 -1 -1 -1 -1 -1 -1 -0 -0 -0 -0 -0 -0 0 0 0 0 0 0 -0 0 0 0 -0 -0 -0 -0 -0 -0
0 0 0 0 0 -0 -0 -0 -0 -1 -1 -1 -1 -1 -1 -1 -1 -1 -1 -1 -1 -1 -1 -1 -1 -0 -0 -0 -0 -0 -0 -0 -0 -0 0 0 0 -0 0 0 -0 -0
-0 0 0 0 0 -0 -1 -1 -1 -1 -1 -1 -1 -1 -1 -1 -2 -1 -1 -1 -1 -1 -1 -1 -1 -1 -1 -1 -1 -1 -1 -1 -1 -1 -0 0 0 -0 -0 -0 -0 -1
-0 -0 -0 -0 -1 -1 -1 -1 -1 -1 -1 -1 -1 -1 -2 -2 -2 -2 -1 -1 -2 -2 -2 -1 -1 -1 -1 -1 -1 -1 -1 -1 -1 -1 -1 -1 -0 -0 -0 -1 -1 -1
-0 -0 -0 -0 -1 -1 -1 -1 -1 -1 -1 -1 -1 -1 -1 -2 -2 -2 -2 -2 -2 -2 -2 -2 -1 -1 -1 -1 -1 -1 -1 -1 -1 -1 -1 -1 -0 -0 -0 -1 -1 -2
-1 -1 -1 -1 -1 -1 -1 -1 -1 -1 -1 -1 -1 -1 -1 -2 -2 -2 -2 -2 -2 -2 -2 -2 -1 -1 -1 -1 -1 -1 -1 -1 -0 -0 -0 -0 -1 -1 -1 -1 -1 -2
-1 -1 -1 -1 -1 -1 -1 -1 -1 -1 -1 -1 -1 -2 -2 -2 -2 -2 -2 -2 -2 -2 -2 -1 -1 -1 -1 -1 -1 -1 -1 -1 -1 -1 -1 -1 -1 -1 -2 -2 -2 -2
-1 -1 -1 -1 -1 -1 -2 -2 -2 -2 -2 -2 -2 -2 -2 -2 -2 -2 -2 -2 -2 -2 -2 -2 -2 -1 -1 -1 -1 -1 -1 -1 -2 -1 -1 -1 -1 -2 -2 -2 -2 -2
-2 -2 -2 -2 -2 -2 -2 -2 -2 -2 -2 -2 -2 -2 -2 -2 -2 -2 -2 -2 -2 -2 -2 -2 -2 -2 -2 -2 -2 -2 -2 -2 -2 -2 -2 -2 -2 -2 -2 -2 -2 -2
-2 -2 -2 -2 -2 -2 -2 -2 -2 -2 -3 -3 -3 -3 -3 -3 -3 -3 -3 -3 -3 -2 -2 -2 -2 -2 -2 -2 -2 -2 -2 -2 -2 -2 -2 -2 -2 -2 -2 -2 -2 -3
-2 -2 -2 -2 -2 -2 -2 -2 -3 -3 -3 -3 -3 -3 -3 -3 -3 -3 -3 -3 -3 -3 -3 -3 -2 -2 -2 -2 -2 -2 -2 -2 -2 -2 -2 -2 -2 -2 -2 -2 -3 -3
-2 -2 -2 -2 -2 -2 -2 -3 -3 -3 -3 -3 -3 -3 -3 -3 -3 -3 -3 -3 -3 -3 -3 -3 -3 -3 -3 -3 -3 -3 -3 -3 -3 -3 -2 -2 -2 -2 -2 -3 -3 -3
-3 -3 -3 -3 -3 -3 -3 -3 -3 -3 -3 -3 -3 -4 -4 -4 -4 -4 -4 -3 -3 -3 -3 -3 -3 -3 -3 -3 -3 -3 -3 -3 -3 -3 -3 -3 -3 -3 -3 -3 -3 -3
-4 -3 -3 -3 -3 -3 -3 -3 -3 -3 -3 -4 -4 -4 -4 -4 -4 -4 -4 -4 -4 -4 -4 -4 -4 -4 -4 -3 -3 -3 -3 -3 -3 -3 -3 -3 -3 -3 -3 -3 -3 -3
Height
3129 3130 3130 3131 3132 3131 3131 3131 3131 3131 3131 3131 3130 3130 3130 3129 3129 3129 3130 3130 3130 3130 3130 3130 3130 3131 3131 3131 3131 3132 3132 3132 3132 3133 3133 3133 3133 3133 3133 3134 3134 3134
3128 3129 3129 3130 3131 3131 3131 3131 3131 3131 3132 3132 3132 3131 3131 3130 3130 3130 3131 3131 3131 3131 3131 3131 3131 3132 3132 3132 3133 3133 3134 3134 3134 3134 3134 3134 3135 3135 3135 3135 3135 3135
3127 3127 3127 3129 3131 3131 3131 3131 3131 3131 3132 3132 3133 3132 3132 3131 3131 3131 3131 3131 3131 3132 3132 3132 3132 3132 3133 3133 3134 3134 3135 3135 3136 3136 3136 3136 3136 3136 3136 3136 3136 3136
3125 3126 3126 3128 3130 3130 3131 3131 3131 3131 3131 3132 3133 3133 3132 3132 3132 3132 3132 3132 3132 3132 3132 3133 3133 3133 3133 3134 3134 3135 3135 3136 3136 3137 3137 3137 3137 3137 3137 3137 3137 3137
3124 3125 3125 3126 3128 3129 3129 3130 3131 3131 3131 3132 3132 3133 3133 3133 3132 3132 3132 3132 3133 3133 3133 3133 3133 3134 3134 3134 3134 3135 3135 3136 3136 3137 3137 3137 3137 3137 3137 3137 3137 3137
3122 3123 3123 3124 3125 3127 3127 3128 3130 3130 3130 3131 3131 3132 3132 3132 3133 3133 3133 3133 3133 3133 3134 3134 3134 3134 3134 3134 3135 3135 3135 3135 3136 3136 3136 3137 3137 3137 3137 3137 3137 3136
3119 3121 3121 3121 3123 3124 3125 3126 3127 3128 3129 3129 3130 3131 3131 3131 3132 3132 3132 3133 3133 3134 3134 3134 3134 3134 3135 3135 3135 3135 3135 3135 3135 3135 3135 3136 3136 3136 3136 3136 3136 3136
3116 3118 3119 3119 3120 3121 3122 3123 3124 3126 3127 3127 3128 3129 3129 3130 3131 3131 3131 3132 3132 3133 3133 3134 3134 3134 3135 3135 3135 3135 3135 3135 3134 3134 3134 3134 3135 3135 3135 3135 3135 3135
3113 3116 3117 3117 3118 3118 3118 3119 3121 3123 3124 3125 3126 3126 3127 3128 3129 3129 3130 3131 3131 3132 3132 3132 3133 3134 3134 3135 3135 3135 3135 3135 3134 3133 3133 3133 3133 3133 3133 3133 3133 3133
3112 3113 3115 3115 3115 3114 3114 3116 3118 3120 3121 3121 3122 3124 3124 3125 3126 3127 3128 3129 3129 3130 3130 3131 3131 3132 3133 3134 3134 3134 3134 3134 3133 3133 3132 3132 3132 3132 3132 3132 3131 3131
3110 3111 3112 3111 3109 3109 3111 3113 3114 3116 3116 3117 3119 3121 3121 3122 3123 3124 3125 3126 3127 3127 3128 3129 3129 3130 3131 3132 3133 3133 3133 3133 3133 3132 3131 3131 3130 3130 3130 3130 3130 3129
3107 3109 3109 3108 3108 3109 3110 3110 3110 3111 3113 3114 3116 3117 3118 3119 3121 3121 3122 3122 3123 3124 3125 3126 3127 3127 3127 3129 3129 3129 3129 3130 3130 3130 3130 3129 3129 3128 3128 3128 3128 3128
3104 3106 3106 3106 3107 3108 3108 3109 3110 3111 3112 3112 3114 3114 3115 3117 3118 3118 3119 3120 3120 3121 3122 3123 3123 3123 3124 3124 3124 3124 3124 3125 3127 3128 3128 3127 3126 3126 3126 3126 3125 3125
3102 3104 3105 3105 3105 3104 3105 3107 3109 3110 3111 3110 3111 3111 3112 3114 3116 3116 3117 3117 3118 3119 3120 3120 3120 3120 3120 3120 3120 3120 3120 3121 3122 3124 3125 3124 3124 3124 3124 3123 3123 3123
3100 3102 3103 3104 3103 3103 3104 3105 3106 3109 3109 3108 3108 3108 3109 3111 3113 3113 3114 3115 3115 3116 3117 3118 3118 3119 3119 3118 3118 3118 3118 3118 3119 3120 3121 3121 3121 3121 3121 3120 3120 3120
3099 3099 3100 3101 3101 3103 3104 3104 3105 3107 3108 3107 3107 3108 3108 3109 3110 3111 3111 3112 3113 3114 3114 3115 3116 3117 3117 3117 3117 3117 3116 3116 3117 3117 3118 3118 3118 3117 3117 3117 3117 3117
3097 3097 3097 3099 3101 3102 3102 3102 3104 3105 3105 3105 3106 3107 3107 3107 3108 3109 3109 3110 3111 3112 3112 3113 3113 3114 3114 3115 3115 3115 3114 3114 3115 3115 3115 3115 3115 3114 3114 3114 3114 3114
3094 3095 3096 3098 3100 3101 3101 3102 3103 3103 3103 3104 3104 3105 3105 3106 3106 3107 3107 3108 3109 3109 3110 3110 3111 3111 3112 3112 3112 3112 3112 3112 3112 3112 3112 3112 3111 3111 3111 3111 3111 3110
3090 3091 3093 3096 3097 3098 3099 3100 3100 3100 3101 3102 3102 3103 3103 3104 3105 3105 3105 3106 3106 3107 3107 3108 3108 3108 3108 3108 3108 3108 3108 3108 3108 3108 3108 3108 3107 3107 3107 3108 3107 3107
3086 3088 3090 3092 3093 3094 3095 3096 3096 3097 3098 3099 3100 3100 3101 3101 3101 3101 3102 3102 3102 3103 3103 3104 3104 3104 3104 3104 3104 3104 3104 3104 3104 3104 3104 3103 3103 3103 3103 3103 3103 3103
3084 3086 3087 3089 3090 3091 3091 3092 3093 3094 3094 3095 3096 3096 3096 3097 3097 3097 3097 3098 3098 3099 3100 3100 3100 3100 3100 3100 3100 3100 3100 3100 3100 3100 3100 3100 3099 3099 3098 3098 3099 3099
3082 3083 3084 3086 3087 3087 3088 3088 3089 3089 3090 3091 3091 3092 3092 3093 3093 3093 3093 3094 3095 3096 3096 3096 3097 3096 3096 3096 3096 3096 3096 3096 3096 3096 3096 3096 3096 3095 3095 3094 3094 3094
3078 3079 3080 3082 3083 3083 3084 3084 3085 3085 3086 3087 3087 3088 3089 3089 3090 3090 3090 3091 3092 3092 3093 3093 3094 3093 3093 3093 3093 3093 3093 3092 3092 3092 3092 3092 3091 3091 3091 3091 3090 3090
3075 3076 3077 3078 3079 3080 3080 3081 3082 3082 3083 3083 3084 3085 3085 3086 3086 3087 3088 3088 3089 3089 3090 3090 3090 3090 3090 3090 3090 3090 3089 3089 3089 3088 3088 3087 3087 3087 3087 3087 3087 3086
3071 3072 3074 3074 3075 3076 3077 3078 3079 3079 3080 3080 3081 3081 3082 3082 3083 3084 3084 3085 3086 3086 3086 3087 3087 3087 3087 3087 3087 3086 3086 3086 3085 3085 3084 3084 3083 3083 3083 3082 3082 3081
3067 3068 3069 3070 3072 3073 3074 3075 3075 3076 3077 3077 3078 3078 3078 3079 3079 3080 3080 3081 3081 3082 3083 3083 3083 3083 3083 3083 3083 3083 3082 3082 3082 3081 3081 3080 3080 3079 3079 3078 3078 3077
Wind_Speed
13 9 3 2 2 2 3 4 5 4 2 4 8 12 15 17 18 19 19 19 18 18 18 18 18 18 17 17 16 16 15 15 15 14 14 13 12 11 10 9 7 7
15 13 7 5 2 1 1 1 3 2 1 4 7 11 14 16 18 18 18 18 18 18 18 18 18 18 18 18 17 17 16 16 16 15 15 14 14 13 12 12 11 10
17 14 9 7 5 3 3 2 2 2 2 3 5 8 11 13 15 15 15 15 15 16 16 15 15 15 15 15 15 15 14 14 13 13 13 13 12 12 12 12 11 11
18 15 12 10 8 7 6 5 4 3 3 3 4 5 7 9 10 11 11 11 11 11 11 11 11 10 10 10 10 10 10 10 10 10 10 10 10 10 10 10 10 10
19 17 15 14 12 12 11 9 7 6 6 4 5 5 5 5 5 6 7 7 7 7 7 6 6 6 5 5 5 5 5 6 6 6 7 7 7 8 9 10 10 10
20 19 16 17 17 16 14 12 11 10 9 7 7 7 6 6 5 4 4 3 3 3 3 2 2 2 2 3 3 3 3 3 4 4 5 6 6 7 7 8 9 9
23 21 18 19 20 19 18 16 15 14 12 11 10 9 8 8 8 8 8 8 6 5 4 3 4 4 5 6 6 6 6 5 6 6 6 7 7 7 7 7 8 8
25 22 21 21 21 22 21 20 20 18 16 15 14 13 12 11 10 9 9 9 9 9 9 9 10 9 10 11 11 10 9 8 8 8 8 8 8 9 9 9 8 8
28 26 24 23 23 25 26 24 21 20 19 17 16 15 15 14 12 11 10 10 9 10 10 11 11 10 12 14 15 14 12 12 12 11 11 10 9 10 11 11 11 10
29 27 25 25 28 29 30 28 26 23 22 20 17 17 17 16 15 15 14 13 13 12 12 12 12 12 13 14 16 17 16 16 16 16 14 12 10 11 11 12 12 12
29 29 27 28 31 32 33 33 32 29 26 21 18 19 18 16 16 17 17 17 16 16 15 15 16 17 19 19 19 21 23 22 20 19 17 14 13 13 13 14 14 14
33 30 27 26 27 28 32 37 37 34 29 22 20 21 19 16 16 17 17 18 18 18 18 18 19 21 24 25 25 25 28 27 21 19 18 16 14 15 15 16 16 17
30 27 24 23 25 26 28 31 33 31 26 21 21 23 20 18 19 17 15 15 16 17 19 19 20 22 24 25 24 23 26 29 26 21 19 17 15 15 16 17 17 18
26 24 22 21 24 27 28 28 28 27 23 21 22 21 16 16 19 17 15 16 17 18 18 18 19 20 20 19 19 18 19 25 29 27 22 17 15 15 16 18 18 18
24 23 24 24 26 27 26 23 22 22 21 20 20 18 16 17 18 18 19 19 17 16 15 15 14 14 14 14 15 16 16 19 23 28 28 24 21 20 20 21 20 20
19 21 24 24 21 20 17 15 14 16 17 18 18 19 20 20 20 20 20 18 15 14 14 15 14 13 13 13 14 15 16 17 19 23 27 28 27 27 27 25 23 22
15 16 17 14 12 11 11 11 11 11 12 13 13 15 18 19 19 20 20 19 18 19 19 18 17 16 16 16 16 16 18 19 20 21 24 26 27 29 29 27 25 23
13 14 13 11 12 12 11 11 13 13 12 13 14 15 15 16 16 17 17 17 18 19 19 19 19 19 19 20 21 21 22 23 25 25 26 26 27 28 28 28 28 26
15 15 14 13 14 14 13 14 14 14 14 15 16 16 17 18 18 19 20 21 21 21 22 23 23 23 24 25 26 26 26 27 28 28 28 27 27 28 28 29 29 29
17 16 15 15 15 15 15 15 16 16 17 17 18 19 20 22 22 23 24 24 24 23 24 24 24 25 25 25 26 27 27 27 27 27 27 27 27 29 31 31 30 29
19 19 18 18 18 18 18 19 20 21 20 19 19 19 19 20 21 22 22 22 22 21 21 21 22 22 23 23 24 25 26 26 26 26 26 27 28 30 32 32 30 28
22 22 22 22 21 21 21 21 20 20 19 18 17 17 17 18 20 21 21 22 22 22 22 22 22 22 23 23 24 24 25 27 27 27 27 28 28 30 31 31 29 28
22 22 23 23 23 22 22 21 19 19 18 18 18 18 19 20 21 22 23 23 23 24 24 24 24 23 24 24 24 25 25 26 26 26 27 27 27 29 30 29 30 30
23 23 24 24 23 23 22 22 21 21 21 21 21 21 22 23 24 24 24 24 25 25 25 25 25 24 24 25 25 25 26 26 26 26 25 25 26 27 27 28 29 30
25 25 24 24 24 24 24 24 24 24 23 23 23 24 25 26 26 26 25 25 25 25 25 25 25 25 26 26 26 26 27 27 28 28 27 27 28 28 28 29 29 30
25 25 24 24 24 24 24 25 26 26 25 25 25 26 27 28 28 27 27 26 26 25 25 26 26 26 26 26 27 27 28 29 30 30 30 30 30 30 31 31 32 32
Wind_Direction
235 238 224 111 66 3 11 33 38 39 78 114 112 109 108 106 104 102 101 100 98 97 97 96 95 94 91 90 89 87 85 83 82 79 76 74 73 71 69 66 63 60
237 236 205 164 173 256 314 62 64 56 104 131 125 117 113 110 107 105 103 101 100 97 96 94 92 91 89 88 86 83 82 80 78 76 73 71 69 67 66 66 66 64
236 236 201 176 192 204 219 192 134 123 129 144 144 130 123 117 112 110 108 106 105 102 99 96 93 90 87 85 82 79 77 74 72 70 68 65 62 59 58 58 58 58
232 231 193 178 197 196 202 209 196 193 175 162 174 159 142 131 124 121 117 113 111 107 104 101 96 92 88 84 82 77 71 66 61 59 54 52 49 44 42 40 39 40
229 229 198 184 201 200 198 209 216 216 205 196 205 203 189 174 158 145 136 130 125 113 106 102 95 88 81 74 71 69 66 57 47 40 31 26 25 22 20 19 16 17
226 235 217 197 203 208 210 216 221 222 222 226 224 224 232 239 240 229 216 199 170 147 125 112 91 61 35 12 4 1 3 5 1 359 356 353 357 359 357 357 356 355
224 234 226 210 208 214 219 221 224 225 230 237 235 228 231 241 255 260 260 263 263 264 267 274 287 305 317 317 314 308 302 303 309 312 316 320 325 331 333 334 337 338
223 234 233 226 220 223 227 229 229 229 230 236 240 237 232 236 252 263 263 264 269 274 276 277 284 294 302 304 302 297 290 288 290 290 292 299 303 305 310 313 312 315
226 235 236 239 238 233 229 230 233 235 238 243 247 246 242 244 253 261 261 261 264 271 274 272 273 286 297 297 294 289 286 286 285 282 280 283 290 294 295 298 297 296
229 236 239 249 252 240 228 227 229 228 231 240 247 248 246 249 257 261 261 264 266 268 271 266 263 275 289 289 282 276 278 283 281 278 276 273 275 281 281 282 282 281
234 242 247 250 249 236 224 224 226 224 225 231 239 247 249 253 258 261 261 263 266 269 272 271 272 279 285 288 283 271 266 272 273 269 270 271 269 271 273 274 274 273
236 245 250 252 253 244 229 222 222 223 227 228 231 238 245 254 257 257 259 260 262 267 271 278 285 289 292 296 297 279 259 257 261 258 256 259 262 265 268 271 274 276
239 246 248 251 258 257 247 235 225 222 225 234 239 235 234 248 251 249 257 262 265 272 280 289 296 300 301 303 304 290 260 248 248 247 248 252 254 257 262 267 273 278
241 251 253 257 260 253 246 242 235 231 233 243 248 238 235 255 256 254 266 273 277 285 291 298 301 304 307 303 297 291 268 251 245 240 241 251 256 256 262 267 273 278
245 255 257 263 267 256 245 244 250 257 262 266 268 263 263 271 268 268 276 279 284 293 297 300 300 299 299 291 281 276 269 262 253 240 238 247 258 265 270 272 274 279
254 259 259 262 266 264 267 275 281 284 286 288 291 284 277 275 275 278 282 282 284 287 287 287 286 283 280 275 272 269 264 264 259 248 245 250 258 266 272 275 277 281
251 252 258 264 264 269 282 286 278 281 285 284 283 278 274 275 277 279 281 279 275 274 275 276 275 274 275 272 272 271 267 264 261 258 257 257 261 266 272 276 280 283
251 249 250 253 254 258 265 263 260 265 269 268 268 266 263 262 263 267 270 270 269 269 271 272 272 274 277 278 277 274 271 268 266 264 264 265 267 269 271 275 279 281
253 250 249 249 251 257 262 260 255 251 249 254 259 257 252 252 254 258 263 266 267 268 269 271 274 276 276 277 276 273 270 267 266 266 267 269 270 270 271 273 276 277
253 252 251 250 253 258 259 255 249 246 248 252 253 252 251 254 257 261 266 269 271 272 273 273 274 275 274 272 270 270 269 269 268 269 269 270 270 270 271 271 272 272
250 252 253 254 257 258 257 255 253 252 253 252 253 254 255 259 263 266 268 270 273 276 276 275 275 275 274 272 271 272 274 275 276 275 273 271 270 271 272 272 270 270
248 250 253 255 258 259 259 258 255 251 248 247 250 255 260 264 268 270 272 274 276 277 277 276 276 276 276 276 276 277 278 279 279 278 277 275 272 271 273 274 276 275
246 249 251 253 254 256 257 256 250 245 243 245 250 255 259 263 266 269 273 276 277 278 278 278 277 276 276 277 277 278 279 279 280 280 279 277 275 273 273 273 273 274
244 246 249 252 252 253 254 252 249 247 249 252 256 259 261 264 267 270 274 276 278 278 278 277 276 275 274 274 275 277 278 278 278 278 279 279 279 278 278 276 273 271
245 245 245 246 247 248 250 250 250 250 251 254 257 261 264 267 270 273 275 277 277 277 276 275 275 273 273 274 274 275 276 276 276 277 278 280 282 283 283 282 279 276
249 250 249 247 245 245 247 249 250 250 252 254 257 261 264 268 272 275 278 279 279 279 278 277 276 275 275 276 276 276 277 277 277 277 278 279 281 282 282 282 280 278